Date,TemperatureHighF,TemperatureAvgF,TemperatureLowF,DewpointHighF,DewpointAvgF,DewpointLowF,HumidityHigh,HumidityAvg,HumidityLow,PressureMaxIn,PressureMinIn,WindSpeedMaxMPH,WindSpeedAvgMPH,GustSpeedMaxMPH,PrecipitationSumIn
2013-9-1,84.1,75.4,70.8,75.0,71.0,68.0,94,86,68,29.86,29.76,4,0,0,0.00
2013-9-2,76.8,73.8,72.0,75.0,72.2,71.0,97,94,91,29.84,29.68,3,0,0,0.24
2013-9-3,81.2,72.6,62.1,72.0,67.8,58.0,100,86,64,29.78,29.67,2,0,0,0.00
2013-9-4,83.2,68.3,57.0,62.0,57.6,55.0,100,72,39,29.88,29.77,3,0,0,0.05
2013-9-5,72.0,62.8,49.8,62.0,53.1,44.0,94,73,40,30.12,29.82,1,0,0,0.05
2013-9-6,73.5,56.7,42.6,49.0,44.2,39.0,97,68,30,30.21,30.05,3,0,0,0.00
2013-9-7,82.2,62.7,46.1,60.0,51.9,45.0,96,72,33,30.05,29.82,3,0,0,0.00
2013-9-8,75.4,63.9,48.6,61.0,52.0,41.0,87,68,34,30.07,29.72,3,0,0,0.00
2013-9-9,71.8,56.5,42.2,50.0,44.6,40.0,96,69,35,30.20,30.07,3,0,0,0.00
2013-9-10,74.4,65.2,54.5,70.0,62.0,50.0,100,89,78,30.11,29.99,5,0,0,0.18
2013-9-11,96.8,81.0,68.6,76.0,71.4,66.0,100,76,45,30.03,29.91,4,1,0,0.00
2013-9-12,86.7,76.2,67.9,74.0,69.2,66.0,96,80,58,29.93,29.64,9,1,0,18.54
2013-9-13,78.8,67.6,58.7,71.0,64.8,55.0,100,91,68,29.73,29.54,2,0,0,25.16
2013-9-14,67.9,60.5,54.5,56.0,53.9,52.0,93,80,60,29.94,29.73,1,0,0,126.63
2013-9-16,65.6,55.4,47.9,54.0,41.6,-99.9,72,64,61,30.23,30.00,1,-28,0,0.00
2013-9-17,66.4,51.2,38.5,47.0,40.8,36.0,94,70,41,30.40,30.23,2,0,0,0.00
2013-9-18,77.0,57.0,41.8,51.0,45.7,40.0,100,72,28,30.29,30.10,1,0,0,0.00
2013-9-19,81.2,61.4,46.7,59.0,52.0,45.0,100,75,31,30.10,29.99,2,0,0,0.00
2013-9-20,83.0,62.4,47.6,60.0,53.7,46.0,100,77,38,30.05,29.96,1,0,0,0.00
2013-9-21,74.4,63.7,51.6,65.0,58.6,50.0,100,85,61,29.99,29.68,6,1,0,0.00
2013-9-22,73.7,64.3,51.6,67.0,57.1,46.0,97,79,48,29.80,29.56,7,0,0,0.58
2013-9-23,65.3,53.3,44.9,47.0,42.7,40.0,84,69,47,29.97,29.80,2,0,0,0.00
2013-9-24,69.8,53.7,40.8,47.0,42.6,39.0,94,69,35,29.96,29.78,3,0,0,0.00
2013-9-25,71.1,49.6,44.9,55.0,32.5,-99.9,96,70,52,29.96,29.84,1,-107,0,0.00
2013-9-26,70.3,58.1,52.3,52.0,49.8,47.0,92,76,46,30.10,29.96,1,0,0,0.00
2013-9-27,66.6,39.8,51.0,56.0,2.9,-99.9,95,54,66,30.23,30.10,2,-326,0,0.00
2013-9-28,77.4,58.0,45.7,59.0,51.2,45.0,100,81,47,30.30,30.22,4,0,0,0.00
2013-9-29,71.8,55.3,46.2,57.0,47.7,42.0,100,79,35,30.23,30.09,3,0,0,0.00
2013-9-30,71.8,55.2,45.1,54.0,49.0,43.0,100,82,47,30.10,29.93,1,0,0,0.00